Weather History for KTRK - February, 2014

Change the Weather History Date:

Monday, February 24, 2014

  Actual Average Record
Temperature  
Mean Temperature 38 °F -  
Max Temperature 60 °F 45 °F 61 °F (1988)
Min Temperature 17 °F 17 °F -2 °F (1960)
Degree Days  
Heating Degree Days 26    
Moisture  
Dew Point 24 °F    
Average Humidity 74    
Maximum Humidity 93    
Minimum Humidity 22    
Precipitation  
Precipitation 0.00 in - - ()
Sea Level Pressure  
Sea Level Pressure 30.10 in    
Wind  
Wind Speed 1 mph (WSW)    
Max Wind Speed 9 mph    
Max Gust Speed -    
Visibility 10 miles    
Events      
Averages and records for this station are not official NWS values.
T = Trace of Precipitation, MM = Missing Value Source: NWS Daily Summary

Daily Weather History Graph

Daily Weather History Graph

Search for Another Location

Airport or City:

Trip Planner

Search our weather history database for the weather conditions in past years. The results will help you decide how hot, cold, wet, or windy it might be!

Date:

Astronomy

Feb. 24, 2014 Rise Set
Actual Time 6:40 AM PST 5:47 PM PST
Civil Twilight 6:13 AM PST 6:14 PM PST
Nautical Twilight 5:42 AM PST 6:45 PM PST
Astronomical Twilight 5:11 AM PST 7:16 PM PST
Moon 2:42 AM PST (2/24) 12:55 PM PST (2/24)
Length of Visible Light 12h 01m
Length of Day
11h 07m
Waning Crescent, 27% of the Moon is Illuminated
Feb 24
Waning Crescent
Mar 1
New
Mar 8
First Quarter
Mar 16
Full
Mar 23
Last Quarter

Hourly Weather History & Observations

Time (PST) Temp. Windchill Dew Point Humidity Pressure Visibility Wind Dir Wind Speed Gust Speed Precip Events Conditions
12:15 AM 23.0 °F - 21.2 °F 93% 30.12 in 10.0 mi Calm Calm - N/A   Clear
12:35 AM 23.0 °F - 19.4 °F 86% 30.12 in 10.0 mi Calm Calm - N/A   Clear
12:55 AM 24.8 °F - 21.2 °F 86% 30.12 in 10.0 mi Calm Calm - N/A   Clear
1:15 AM 26.6 °F - 21.2 °F 80% 30.12 in 10.0 mi Calm Calm - N/A   Clear
1:35 AM 21.2 °F - 19.4 °F 93% 30.12 in 10.0 mi Calm Calm - N/A   Clear
1:55 AM 21.2 °F - 19.4 °F 93% 30.12 in 10.0 mi Calm Calm - N/A   Clear
2:15 AM 23.0 °F - 19.4 °F 86% 30.11 in 10.0 mi Calm Calm - N/A   Clear
2:35 AM 23.0 °F - 19.4 °F 86% 30.11 in 10.0 mi Calm Calm - N/A   Clear
2:55 AM 23.0 °F - 19.4 °F 86% 30.11 in 10.0 mi Calm Calm - N/A   Clear
3:15 AM 23.0 °F - 19.4 °F 86% 30.11 in 10.0 mi Calm Calm - N/A   Clear
3:35 AM 19.4 °F - 15.8 °F 86% 30.11 in 10.0 mi Calm Calm - N/A   Clear
3:55 AM 19.4 °F - 17.6 °F 93% 30.11 in 10.0 mi Calm Calm - N/A   Clear
4:15 AM 21.2 °F - 17.6 °F 86% 30.11 in 10.0 mi Calm Calm - N/A   Clear
4:35 AM 17.6 °F - 14.0 °F 86% 30.11 in 10.0 mi Calm Calm - N/A   Clear
4:55 AM 19.4 °F - 17.6 °F 93% 30.12 in 10.0 mi Calm Calm - N/A   Clear
5:15 AM 19.4 °F - 17.6 °F 93% 30.12 in 10.0 mi Calm Calm - N/A   Clear
5:35 AM 21.2 °F - 19.4 °F 93% 30.13 in 10.0 mi Calm Calm - N/A   Clear
6:50 AM 19.4 °F - 17.6 °F 93% 30.13 in 10.0 mi Calm Calm - N/A   Clear
7:45 AM 21.2 °F - 19.4 °F 93% 30.14 in 10.0 mi Calm Calm - N/A   Clear
8:45 AM 30.2 °F - 21.2 °F 69% 30.14 in 10.0 mi Calm Calm - N/A   Clear
9:45 AM 37.4 °F - 23.0 °F 56% 30.13 in 10.0 mi Calm Calm - N/A   Clear
10:45 AM 46.4 °F - 24.8 °F 43% 30.12 in 10.0 mi Calm Calm - N/A   Clear
11:45 AM 53.6 °F - 23.0 °F 30% 30.10 in 10.0 mi Calm Calm - N/A   Partly Cloudy
12:45 PM 57.2 °F - 21.2 °F 25% 30.07 in 10.0 mi Calm Calm - N/A   Clear
1:50 PM 60.8 °F - 21.2 °F 22% 30.04 in 10.0 mi NW 6.9 mph - N/A   Clear
2:50 PM 59.0 °F - 21.2 °F 23% 30.04 in 10.0 mi NW 6.9 mph - N/A   Clear
3:50 PM 57.2 °F - 23.0 °F 27% 30.04 in 10.0 mi WNW 6.9 mph - N/A   Clear
4:55 PM 55.4 °F - 28.4 °F 36% 30.04 in 10.0 mi WSW 9.2 mph - N/A   Clear
5:15 PM 53.6 °F - 30.2 °F 41% 30.05 in 10.0 mi West 6.9 mph - N/A   Clear
5:35 PM 51.8 °F - 32.0 °F 47% 30.06 in 10.0 mi West 6.9 mph - N/A   Clear
5:55 PM 48.2 °F - 32.0 °F 54% 30.06 in 10.0 mi WSW 3.5 mph - N/A   Clear
6:15 PM 48.2 °F - 32.0 °F 54% 30.06 in 10.0 mi Calm Calm - N/A   Clear
6:35 PM 41.0 °F 37.1 °F 28.4 °F 61% 30.07 in 10.0 mi SE 5.8 mph - N/A   Clear
6:55 PM 37.4 °F 32.8 °F 28.4 °F 70% 30.08 in 10.0 mi SSE 5.8 mph - N/A   Clear
7:15 PM 35.6 °F - 30.2 °F 81% 30.08 in 10.0 mi Calm Calm - N/A   Clear
7:35 PM 35.6 °F 31.7 °F 30.2 °F 81% 30.08 in 10.0 mi South 4.6 mph - N/A   Clear
7:55 PM 33.8 °F 28.6 °F 28.4 °F 81% 30.08 in 10.0 mi SE 5.8 mph - N/A   Clear
8:15 PM 32.0 °F - 28.4 °F 87% 30.08 in 10.0 mi Calm Calm - N/A   Clear
8:35 PM 33.8 °F - 30.2 °F 87% 30.09 in 10.0 mi Calm Calm - N/A   Clear
8:55 PM 33.8 °F - 30.2 °F 87% 30.09 in 10.0 mi Calm Calm - N/A   Clear
9:15 PM 32.0 °F - 28.4 °F 87% 30.10 in 10.0 mi Calm Calm - N/A   Clear
9:35 PM 32.0 °F - 28.4 °F 87% 30.10 in 10.0 mi Calm Calm - N/A   Clear
9:55 PM 32.0 °F - 28.4 °F 87% 30.11 in 10.0 mi Calm Calm - N/A   Clear
10:15 PM 32.0 °F - 28.4 °F 87% 30.11 in 10.0 mi Calm Calm - N/A   Clear
10:35 PM 32.0 °F - 28.4 °F 87% 30.11 in 10.0 mi Calm Calm - N/A   Clear
10:55 PM 32.0 °F - 28.4 °F 87% 30.11 in 10.0 mi Calm Calm - N/A   Clear
11:15 PM 30.2 °F - 26.6 °F 86% 30.11 in 10.0 mi Calm Calm - N/A   Clear
11:30 PM 28.4 °F - 26.6 °F 93% 30.11 in 10.0 mi Calm Calm - N/A   Clear
11:55 PM 28.4 °F - 26.6 °F 93% 30.12 in 10.0 mi Calm Calm - N/A   Clear